Simultaneous Nadir Overpasses (SNOs) Predictions

Prediction of SNOs between GOES-16 and METOP-C Satellite Orbit:

Table of predicted SNOs for the next 14.0 days since TLE Epoch: 4/17/2020
Index Date Time (GOES-16) GOES-16 Lat,Lon METOP-C Lat,Lon Distance(km) Time Diff (sec)
1 04/19/2020 02:33:59 -0.01, -75.16 -0.03, -75.28 12.97 80
2 04/21/2020 14:32:11 0.01, -75.20 -0.08, -74.84 40.39 80
3 04/23/2020 02:51:13 -0.01, -75.18 -0.94, -79.44 485.74 80
4 04/24/2020 02:27:53 -0.01, -75.18 0.15, -74.45 83.97 80
5 04/25/2020 14:46:45 0.01, -75.22 0.88, -79.00 431.50 80
6 04/26/2020 14:28:46 0.01, -75.23 -0.27, -74.02 138.35 80
7 04/28/2020 02:47:47 -0.01, -75.21 -0.76, -78.61 387.48 80
8 04/29/2020 02:24:28 -0.01, -75.22 0.33, -73.62 182.38 80
9 04/30/2020 14:43:20 0.00, -75.26 0.63, -78.19 332.79 80
10 05/01/2020 14:25:21 -0.00, -75.27 -0.46, -73.19 237.41 80




NCC Satellite Simultaneous Nadir Overpasses (SNOs) Prediction Service
